Date,TemperatureHighF,TemperatureAvgF,TemperatureLowF,DewpointHighF,DewpointAvgF,DewpointLowF,HumidityHigh,HumidityAvg,HumidityLow,PressureMaxIn,PressureMinIn,WindSpeedMaxMPH,WindSpeedAvgMPH,GustSpeedMaxMPH,PrecipitationSumIn
2013-2-1,66.9,61.1,53.8,-33.0,-95.9,-202.0,2,0,2,30.25,30.18,14,2,0,0.00
2013-2-2,53.8,53.8,53.8,-33.0,-33.0,-33.0,2,2,2,30.20,30.06,0,0,0,0.00
2013-2-3,71.6,61.5,53.3,-26.0,-88.9,-99.9,3,0,1,30.11,29.98,10,3,0,0.00
2013-2-4,71.5,59.4,49.5,-12.0,-82.1,-202.0,7,1,1,30.05,29.95,7,2,0,0.00
2013-2-5,75.1,63.0,53.2,-4.0,-90.2,-99.9,9,1,1,30.02,29.91,6,1,0,0.00
2013-2-6,75.8,68.9,59.9,-42.0,-98.5,-202.0,1,0,1,30.04,29.94,6,1,0,0.00
2013-2-7,77.4,71.1,64.0,-99.9,-99.9,-202.0,0,0,100,30.00,29.81,12,3,0,0.00
2013-2-8,78.6,69.4,63.7,-99.9,-99.9,-202.0,0,0,100,29.99,29.78,13,2,0,0.00
2013-2-9,74.6,66.6,58.6,-9.0,-76.9,-202.0,6,1,1,30.12,29.97,10,2,0,0.00
2013-2-10,76.7,71.0,66.6,-99.9,-99.9,-202.0,0,0,100,30.20,30.10,11,3,0,0.00
2013-2-11,77.4,72.4,69.6,-99.9,-99.9,-202.0,0,0,100,30.14,30.02,13,3,0,0.00
2013-2-12,81.8,72.6,65.8,12.0,-94.6,-202.0,7,0,1,30.03,29.86,10,3,0,0.00
2013-2-13,83.4,74.7,65.5,26.0,-77.4,-202.0,12,1,1,29.90,29.75,16,7,0,0.00
2013-2-14,73.0,65.1,59.8,-99.9,-99.9,-202.0,0,0,100,29.97,29.86,9,1,0,0.00
2013-2-15,69.6,62.7,58.4,-99.9,-99.9,-202.0,0,0,100,29.98,29.87,7,1,0,0.00
2013-2-16,67.8,61.5,51.9,-99.9,-99.9,-202.0,0,0,100,29.99,29.80,23,7,0,0.00
2013-2-17,54.4,47.5,42.2,-99.9,-99.9,-202.0,0,0,100,30.25,30.00,17,4,0,0.00
2013-2-18,68.1,57.0,46.1,-10.0,-90.2,-202.0,4,0,1,30.26,30.15,13,2,0,0.00
2013-2-19,74.9,66.8,55.3,34.0,-54.7,-202.0,23,5,2,30.13,29.98,12,2,0,0.00
2013-2-20,74.0,66.2,59.8,12.0,-79.0,-202.0,9,1,1,30.05,29.95,10,1,0,0.00
2013-2-21,79.0,70.9,64.8,37.0,-68.3,-202.0,22,3,1,30.03,29.94,7,1,0,0.00
2013-2-22,78.6,72.1,64.8,12.0,-80.3,-202.0,8,1,1,30.02,29.94,11,2,0,0.00
2013-2-23,84.0,74.4,68.1,63.0,-57.5,-202.0,50,8,2,29.96,29.80,14,3,0,0.00
2013-2-24,80.5,71.6,67.9,41.0,-81.6,-202.0,25,2,1,29.89,29.80,10,4,0,0.00
2013-2-25,81.6,74.5,68.4,48.0,-61.1,-202.0,31,5,1,29.85,29.71,10,2,0,0.00
2013-2-26,82.0,75.8,68.6,62.0,-25.9,-202.0,51,13,1,29.79,29.68,21,8,0,0.00
2013-2-27,74.7,67.7,63.2,45.0,-53.8,-202.0,35,6,1,29.89,29.78,12,4,0,0.00
2013-2-28,72.7,64.0,55.9,55.0,-23.5,-202.0,56,18,1,29.92,29.79,12,5,0,0.00